Hartford, CT

6:44 AM EDT on May 30, 2017 (GMT -0400)
Hartford-brainard

Weather History for KHFD - November, 2011

Change the Weather History Date:

Wednesday, November 30, 2011

  Actual Average Record
Temperature  
Mean Temperature 48 °F -  
Max Temperature 55 °F 45 °F 69 °F (1933)
Min Temperature 39 °F 29 °F 11 °F (1929)
Degree Days  
Heating Degree Days 16    
Moisture  
Dew Point 41 °F    
Average Humidity 80    
Maximum Humidity 100    
Minimum Humidity 53    
Precipitation  
Precipitation 0.05 in - - ()
Sea Level Pressure  
Sea Level Pressure 29.69 in    
Wind  
Wind Speed 9 mph (SW)    
Max Wind Speed 15 mph    
Max Gust Speed 21 mph    
Visibility 9 miles    
Events Rain    
Averages and records for this station are not official NWS values.
T = Trace of Precipitation, MM = Missing Value Source: NWS Daily Summary

Daily Weather History Graph

Daily Weather History Graph

Search for Another Location

Airport or City:

Trip Planner

Search our weather history database for the weather conditions in past years. The results will help you decide how hot, cold, wet, or windy it might be!

Date:

Astronomy

Nov. 30, 2011 Rise Set
Actual Time 6:56 AM EST 4:21 PM EST
Civil Twilight 6:25 AM EST 4:52 PM EST
Nautical Twilight 5:51 AM EST 5:26 PM EST
Astronomical Twilight 5:18 AM EST 6:00 PM EST
Moon 11:10 AM EST 10:18 PM EST
Length of Visible Light 10h 26m
Length of Day
9h 24m
Waxing Crescent, 33% of the Moon is Illuminated
Nov 30
Waxing Crescent
Dec 2
First Quarter
Dec 10
Full
Dec 17
Last Quarter
Dec 24
New

Hourly Weather History & Observations

Time (EST) Temp. Windchill Dew Point Humidity Pressure Visibility Wind Dir Wind Speed Gust Speed Precip Events Conditions
12:17 AM 55.4 °F - 55.4 °F 100% 29.63 in 10.0 mi South 10.4 mph - 0.00 in   Overcast
12:53 AM 54.0 °F - 54.0 °F 100% 29.64 in 10.0 mi SSW 9.2 mph 17.3 mph 0.00 in   Overcast
1:05 AM 53.6 °F - 53.6 °F 100% 29.64 in 10.0 mi Variable 6.9 mph - 0.00 in Rain Light Rain
1:53 AM 50.0 °F - 50.0 °F 100% 29.65 in 5.0 mi South 10.4 mph - 0.02 in Rain Light Rain
2:36 AM 48.2 °F - 48.2 °F 100% 29.65 in 6.0 mi South 5.8 mph - 0.01 in   Overcast
2:53 AM 48.9 °F - 48.9 °F 100% 29.65 in 9.0 mi South 11.5 mph 18.4 mph 0.01 in   Overcast
3:24 AM 48.2 °F - 48.2 °F 100% 29.63 in 2.0 mi SW 3.5 mph - 0.01 in Rain Light Rain
3:36 AM 48.2 °F - 48.2 °F 100% 29.63 in 3.0 mi SSW 5.8 mph - 0.02 in Rain Light Rain
3:53 AM 48.9 °F - 48.9 °F 100% 29.63 in 10.0 mi SSW 6.9 mph - 0.02 in Rain Light Rain
4:19 AM 48.2 °F - 48.2 °F 100% 29.63 in 10.0 mi SSW 5.8 mph - 0.00 in   Overcast
4:26 AM 48.2 °F - 48.2 °F 100% 29.63 in 10.0 mi SSW 8.1 mph 16.1 mph 0.00 in   Overcast
4:53 AM 46.9 °F - 46.0 °F 97% 29.63 in 10.0 mi SSW 8.1 mph - 0.00 in   Partly Cloudy
5:53 AM 46.0 °F 42.5 °F 44.1 °F 93% 29.64 in 10.0 mi SSW 6.9 mph - N/A   Clear
6:53 AM 45.0 °F 39.7 °F 41.0 °F 86% 29.65 in 10.0 mi SSW 10.4 mph - N/A   Clear
7:53 AM 45.0 °F 41.8 °F 42.1 °F 90% 29.67 in 10.0 mi SSW 5.8 mph - N/A   Scattered Clouds
8:53 AM 46.0 °F 41.4 °F 42.1 °F 86% 29.67 in 10.0 mi South 9.2 mph - N/A   Clear
9:53 AM 46.0 °F 39.6 °F 39.9 °F 79% 29.66 in 10.0 mi South 15.0 mph - N/A   Partly Cloudy
10:53 AM 46.9 °F - 39.9 °F 77% 29.66 in 10.0 mi SSW 11.5 mph 20.7 mph N/A   Overcast
11:53 AM 46.9 °F - 37.9 °F 71% 29.67 in 10.0 mi SW 9.2 mph - N/A   Overcast
12:53 PM 48.0 °F - 36.0 °F 63% 29.65 in 10.0 mi SW 11.5 mph 20.7 mph N/A   Mostly Cloudy
1:53 PM 46.9 °F - 33.1 °F 59% 29.67 in 10.0 mi WSW 12.7 mph 19.6 mph N/A   Scattered Clouds
2:53 PM 46.0 °F 43.9 °F 32.0 °F 58% 29.68 in 10.0 mi Variable 4.6 mph - N/A   Overcast
3:53 PM 46.0 °F 43.9 °F 30.9 °F 56% 29.69 in 10.0 mi SW 4.6 mph - N/A   Overcast
4:53 PM 46.0 °F 42.5 °F 30.9 °F 56% 29.72 in 10.0 mi West 6.9 mph - N/A   Overcast
5:53 PM 45.0 °F 39.3 °F 30.0 °F 56% 29.75 in 10.0 mi West 11.5 mph 17.3 mph N/A   Overcast
6:53 PM 45.0 °F 41.2 °F 28.9 °F 53% 29.78 in 10.0 mi WSW 6.9 mph - N/A   Overcast
7:53 PM 44.1 °F 40.8 °F 30.0 °F 58% 29.79 in 10.0 mi WSW 5.8 mph - N/A   Overcast
8:53 PM 44.6 °F 40.7 °F 30.2 °F 57% 29.81 in 10.0 mi WSW 6.9 mph - N/A   Overcast
9:53 PM 44.1 °F 39.5 °F 30.9 °F 60% 29.83 in 10.0 mi WSW 8.1 mph - N/A   Overcast
10:53 PM 42.1 °F 36.6 °F 32.0 °F 67% 29.87 in 10.0 mi WNW 9.2 mph - N/A   Overcast
11:53 PM 39.9 °F 34.5 °F 30.9 °F 70% 29.90 in 10.0 mi WNW 8.1 mph - N/A   Overcast